Simultaneous Nadir Overpasses (SNOs) Predictions

Prediction of SNOs between METOP-A and TERRA Satellite Orbit:

Table of predicted SNOs for the next 14.0 days since TLE Epoch: 6/8/2013
Index Date (METOP-A) Time (METOP-A) Lat,Lon (METOP-A) SZA (METOP-A ) Date (TERRA) Time (TERRA) Lat,Lon (TERRA) SZA (TERRA ) Distance(km) Time Diff (sec)
1 06/10/2013 00:47:56 -81.29, 34.99 118.79 06/10/2013 00:48:44 -81.30, 35.05 118.76 1.33 48
2 06/10/2013 01:38:37 81.30,-157.64 61.21 06/10/2013 01:38:11 81.29,-157.55 61.21 1.67 26
3 06/12/2013 20:22:16 -81.29, 101.43 118.99 06/12/2013 20:22:59 -81.30, 101.39 118.98 0.78 43
4 06/12/2013 21:12:56 81.30, -90.86 61.06 06/12/2013 21:12:25 81.30, -90.87 61.04 0.34 31
5 06/15/2013 15:56:38 -81.29, 167.45 119.19 06/15/2013 15:57:15 -81.29, 167.61 119.16 2.77 37
6 06/1
